Meteo pe oră la Ablovo

Astăzi, 24 Iulie, Sâmbătă

Timp Temperatura Precipitaţii Vânt Presiune Umiditate
00:00 +13°C° 0 mm 3 m/s 746 mmHg 87%
01:00 +12°C° 0 mm 3 m/s 746 mmHg 88%
02:00 +12°C° 0 mm 3 m/s 746 mmHg 89%
03:00 +11°C° 0 mm 3 m/s 746 mmHg 89%
04:00 +12°C° 0 mm 3 m/s 747 mmHg 87%
05:00 +13°C° 0 mm 2 m/s 747 mmHg 85%
06:00 +13°C° 0 mm 2 m/s 747 mmHg 82%
07:00 +14°C° 0 mm 3 m/s 748 mmHg 73%
08:00 +17°C° 0 mm 3 m/s 748 mmHg 63%
09:00 +19°C° 0 mm 4 m/s 748 mmHg 53%
10:00 +20°C° 0 mm 4 m/s 748 mmHg 50%
11:00 +21°C° 0 mm 4 m/s 749 mmHg 46%
12:00 +21°C° 0 mm 4 m/s 749 mmHg 42%
13:00 +21°C° 0 mm 4 m/s 749 mmHg 43%
14:00 +21°C° 0 mm 3 m/s 749 mmHg 44%
15:00 +21°C° 0 mm 3 m/s 750 mmHg 45%
16:00 +20°C° 0 mm 3 m/s 750 mmHg 48%
17:00 +20°C° 0 mm 3 m/s 750 mmHg 50%
18:00 +19°C° 0 mm 2 m/s 751 mmHg 53%
19:00 +18°C° 0 mm 2 m/s 751 mmHg 56%
20:00 +17°C° 0 mm 2 m/s 752 mmHg 60%
21:00 +16°C° 0 mm 2 m/s 752 mmHg 63%
22:00 +15°C° 0 mm 2 m/s 752 mmHg 65%
23:00 +14°C° 0 mm 1 m/s 753 mmHg 67%

Mâine, 25 Iulie, Duminică

Timp Temperatura Precipitaţii Vânt Presiune Umiditate
00:00 +13°C° 0 mm 1 m/s 753 mmHg 69%
01:00 +13°C° 0 mm 1 m/s 753 mmHg 70%
02:00 +12°C° 0 mm 1 m/s 754 mmHg 71%
03:00 +12°C° 0 mm 1 m/s 754 mmHg 72%
04:00 +12°C° 0 mm 1 m/s 754 mmHg 71%
05:00 +13°C° 0 mm 1 m/s 755 mmHg 70%
06:00 +14°C° 0 mm 1 m/s 755 mmHg 69%
07:00 +16°C° 0 mm 1 m/s 755 mmHg 62%
08:00 +19°C° 0 mm 1 m/s 755 mmHg 54%
09:00 +19°C° 0 mm 0 m/s 755 mmHg 47%
10:00 +22°C° 0 mm 1 m/s 756 mmHg 43%
11:00 +23°C° 0 mm 1 m/s 756 mmHg 39%
12:00 +24°C° 0 mm 1 m/s 756 mmHg 34%
13:00 +24°C° 0 mm 1 m/s 756 mmHg 34%
14:00 +25°C° 0 mm 1 m/s 756 mmHg 34%
15:00 +25°C° 0 mm 1 m/s 756 mmHg 33%
16:00 +24°C° 0 mm 1 m/s 756 mmHg 36%
17:00 +24°C° 0 mm 2 m/s 756 mmHg 39%
18:00 +23°C° 0 mm 2 m/s 756 mmHg 42%
19:00 +21°C° 0 mm 2 m/s 756 mmHg 46%
20:00 +19°C° 0 mm 2 m/s 756 mmHg 50%
21:00 +19°C° 0 mm 1 m/s 756 mmHg 54%
22:00 +18°C° 0 mm 1 m/s 756 mmHg 55%
23:00 +18°C° 0 mm 1 m/s 757 mmHg 56%

Poimâine, 26 Iulie, Luni

Timp Temperatura Precipitaţii Vânt Presiune Umiditate
00:00 +16°C° 0 mm 1 m/s 757 mmHg 57%
01:00 +16°C° 0 mm 1 m/s 757 mmHg 58%
02:00 +15°C° 0 mm 1 m/s 757 mmHg 58%
03:00 +15°C° 0 mm 1 m/s 757 mmHg 58%
04:00 +16°C° 0 mm 1 m/s 757 mmHg 58%
05:00 +16°C° 0 mm 1 m/s 757 mmHg 57%
06:00 +18°C° 0 mm 1 m/s 758 mmHg 56%
07:00 +19°C° 0 mm 1 m/s 758 mmHg 52%
08:00 +21°C° 0 mm 1 m/s 758 mmHg 48%
09:00 +22°C° 0 mm 1 m/s 758 mmHg 44%
10:00 +23°C° 0 mm 1 m/s 758 mmHg 41%
11:00 +25°C° 0 mm 2 m/s 758 mmHg 37%
12:00 +26°C° 0 mm 2 m/s 758 mmHg 34%
13:00 +26°C° 0 mm 2 m/s 758 mmHg 33%
14:00 +27°C° 0 mm 2 m/s 758 mmHg 33%
15:00 +27°C° 0 mm 1 m/s 757 mmHg 32%
16:00 +27°C° 0 mm 1 m/s 757 mmHg 35%
17:00 +26°C° 0 mm 1 m/s 757 mmHg 39%
18:00 +25°C° 0 mm 2 m/s 757 mmHg 42%
19:00 +24°C° 0 mm 1 m/s 757 mmHg 45%
20:00 +22°C° 0 mm 1 m/s 757 mmHg 48%
21:00 +21°C° 0 mm 1 m/s 757 mmHg 52%
22:00 +20°C° 0 mm 1 m/s 757 mmHg 52%
23:00 +20°C° 0 mm 1 m/s 757 mmHg 52%

27 Iulie, Marţi

Timp Temperatura Precipitaţii Vânt Presiune Umiditate
00:00 +20°C° 0 mm 1 m/s 757 mmHg 53%
01:00 +18°C° 0 mm 2 m/s 757 mmHg 54%
02:00 +18°C° 0 mm 2 m/s 757 mmHg 56%
03:00 +17°C° 0 mm 2 m/s 757 mmHg 58%
04:00 +17°C° 0 mm 2 m/s 757 mmHg 59%
05:00 +18°C° 0 mm 2 m/s 757 mmHg 60%
06:00 +19°C° 0 mm 1 m/s 757 mmHg 61%
07:00 +21°C° 0 mm 1 m/s 757 mmHg 57%
08:00 +22°C° 0 mm 1 m/s 757 mmHg 53%
09:00 +24°C° 0 mm 1 m/s 757 mmHg 50%
10:00 +25°C° 0 mm 2 m/s 757 mmHg 46%
11:00 +27°C° 0 mm 2 m/s 757 mmHg 42%
12:00 +28°C° 0 mm 2 m/s 757 mmHg 38%
13:00 +28°C° 0 mm 2 m/s 756 mmHg 39%
14:00 +28°C° 0 mm 2 m/s 756 mmHg 41%
15:00 +28°C° 0 mm 2 m/s 756 mmHg 42%
16:00 +27°C° 0 mm 2 m/s 756 mmHg 44%
17:00 +26°C° 0 mm 2 m/s 756 mmHg 47%
18:00 +25°C° 0 mm 2 m/s 756 mmHg 49%
19:00 +24°C° 0 mm 2 m/s 755 mmHg 52%
20:00 +23°C° 0 mm 2 m/s 755 mmHg 54%
21:00 +21°C° 0 mm 2 m/s 755 mmHg 56%
22:00 +20°C° 0 mm 2 m/s 755 mmHg 59%
23:00 +19°C° 0 mm 2 m/s 755 mmHg 62%

28 Iulie, Miercuri

Timp Temperatura Precipitaţii Vânt Presiune Umiditate
00:00 +18°C° 0 mm 2 m/s 755 mmHg 66%
01:00 +18°C° 0 mm 2 m/s 755 mmHg 67%
02:00 +17°C° 0 mm 2 m/s 755 mmHg 69%
03:00 +17°C° 0 mm 2 m/s 755 mmHg 71%
04:00 +17°C° 0 mm 2 m/s 755 mmHg 70%
05:00 +19°C° 0 mm 1 m/s 755 mmHg 70%
06:00 +19°C° 0 mm 1 m/s 755 mmHg 69%
07:00 +21°C° 0 mm 1 m/s 755 mmHg 61%
08:00 +24°C° 0 mm 1 m/s 755 mmHg 54%
09:00 +26°C° 0 mm 2 m/s 755 mmHg 46%
10:00 +27°C° 0 mm 2 m/s 754 mmHg 42%
11:00 +29°C° 0 mm 2 m/s 754 mmHg 38%
12:00 +30°C° 0 mm 2 m/s 754 mmHg 35%
13:00 +30°C° 0 mm 3 m/s 753 mmHg 34%
14:00 +30°C° 0 mm 3 m/s 753 mmHg 33%
15:00 +31°C° 0 mm 3 m/s 752 mmHg 32%
16:00 +30°C° 0 mm 3 m/s 752 mmHg 33%
17:00 +30°C° 0 mm 3 m/s 751 mmHg 35%
18:00 +30°C° 0 mm 2 m/s 751 mmHg 37%
19:00 +28°C° 0 mm 2 m/s 751 mmHg 41%
20:00 +26°C° 0 mm 2 m/s 750 mmHg 45%
21:00 +24°C° 0 mm 2 m/s 750 mmHg 49%
22:00 +23°C° 0 mm 2 m/s 750 mmHg 55%
23:00 +21°C° 0 mm 2 m/s 750 mmHg 61%

29 Iulie, Joi

Timp Temperatura Precipitaţii Vânt Presiune Umiditate
00:00 +19°C° 0 mm 3 m/s 749 mmHg 66%
01:00 +20°C° 0 mm 3 m/s 749 mmHg 66%
02:00 +20°C° 0 mm 3 m/s 749 mmHg 66%
03:00 +20°C° 0 mm 3 m/s 748 mmHg 67%
04:00 +20°C° 0.1 mm 4 m/s 748 mmHg 71%
05:00 +20°C° 0.1 mm 4 m/s 747 mmHg 75%
06:00 +20°C° 0.1 mm 5 m/s 747 mmHg 79%
07:00 +20°C° 0.1 mm 5 m/s 746 mmHg 78%
08:00 +21°C° 0.1 mm 5 m/s 746 mmHg 78%
09:00 +21°C° 0.1 mm 6 m/s 746 mmHg 78%
10:00 +22°C° 0 mm 5 m/s 745 mmHg 74%
11:00 +23°C° 0 mm 5 m/s 745 mmHg 70%
12:00 +25°C° 0 mm 5 m/s 745 mmHg 66%
13:00 +25°C° 0.9 mm 5 m/s 744 mmHg 70%
14:00 +26°C° 0.9 mm 5 m/s 744 mmHg 73%
15:00 +26°C° 0.9 mm 6 m/s 744 mmHg 77%
16:00 +26°C° 0.7 mm 5 m/s 744 mmHg 76%
17:00 +26°C° 0.7 mm 5 m/s 744 mmHg 76%
18:00 +25°C° 0.7 mm 5 m/s 744 mmHg 75%
19:00 +23°C° 0.1 mm 4 m/s 744 mmHg 79%
20:00 +21°C° 0.1 mm 4 m/s 745 mmHg 84%
21:00 +20°C° 0.1 mm 3 m/s 745 mmHg 88%
22:00 +19°C° 0 mm 3 m/s 745 mmHg 90%
23:00 +19°C° 0 mm 3 m/s 745 mmHg 93%
Arată mai mult

Formular de consimțământ

Meteoprog și furnizorii noștri de servicii pot stoca și accesa date personale, precum cookies, identificatori de dispozitiv sau alte tehnologii similare pe dispozitivul dumneavoastră și procesa astfel de date pentru a personaliza conținutul și reclamele, dar și pentru a oferi caracteristici de social media și pentru a analiza traficul.

  • Stocarea și/sau accesarea informațiilor pe dispozitivul dumneavoastră

    Cookies, identificatori de dispozitiv sau alte informații pot fi stocate sau accesate pe dispozitiv în scopurile indicate mai sus.

  • Reclame și conținut personalizat, evaluarea reclamelor și a conținutului, informații despre audiențe și dezvoltarea produselor

    Reclamele și conținutul pot fi personalizate pe baza unui profil. Pot fi adăugate date suplimentare pentru a personaliza mai bine reclamele și conținutul. Performanța reclamelor și conținutului poate fi măsurată. Pot fi obținute informații despre utilizatorii care au văzut reclamele și conținutul. Aceste date pot fi utilizate pentru a dezvolta sau îmbunătăți experiența utilizatorilor, sistemele și software-ul.

Dând clic pe ‘Sunt de acord’, permiteți utilizarea cookie-urilor menționate, a identificatorilor de dispozitiv, balizelor web sau altor tehnologii similare. Setările pot fi modificate din browser-ul dispozitivului dumneavoastră.

În anumite scopuri, interesele legitime pot prima asupra consimțământului. Puteți citi mai multe informații în acest sens în Politica privind Confidențialitatea Datelor și Cookie.